HST 1 20580U 90037B 26062.41753730 .00009009 00000+0 29940-3 0 9994 2 20580 28.4702 82.7831 0001695 63.3001 296.7768 15.29363841772354 POLAR 1 23802U 96013A 26061.74629649 .00000178 00000+0 00000+0 0 9990 2 23802 79.7411 228.2678 6362278 212.6879 83.6731 1.29845818143473 SWAS 1 25560U 98071A 26062.63469597 .00006031 00000+0 38879-3 0 9995 2 25560 69.8969 139.5634 0003487 23.1006 337.0314 15.08822570481341 CXO 1 25867U 99040B 26063.59985680 .00000824 00000+0 00000+0 0 9999 2 25867 54.4843 119.7682 8003286 310.7757 0.4217 0.37808937 16926 XMM-NEWTON 1 25989U 99066A 26061.64181856 .00000062 00000+0 00000+0 0 9993 2 25989 65.0189 284.3763 4712552 66.8130 359.9781 0.50131664 22470 TERRA 1 25994U 99068A 26062.97370434 .00000659 00000+0 14332-3 0 9999 2 25994 97.9604 116.6265 0002323 165.2359 315.5211 14.61007965394243 CLUSTER II-FM7 (SAMBA) 1 26410U 00041A 26063.25310773 .00003639 00000+0 00000+0 0 9992 2 26410 148.9920 34.5676 8908777 250.6745 359.7226 0.44785609 19832 CLUSTER II-FM8 (TANGO) 1 26464U 00045B 26049.06287974 .00004776 00000+0 00000+0 0 9997 2 26464 149.0711 33.5376 8890045 249.4570 359.4916 0.44405995 19769 ODIN 1 26702U 01007A 26062.62648409 .00052767 00000+0 70300-3 0 9999 2 26702 97.4080 98.4251 0004083 154.8687 205.2768 15.57969489372892 TIMED 1 26998U 01055B 26062.48955191 .00001682 00000+0 15738-3 0 9996 2 26998 74.0660 87.7998 0002960 282.5183 77.5670 14.94999138315023 CORIOLIS 1 27640U 03001A 26062.63950977 .00000195 00000+0 11238-3 0 9997 2 27640 98.7161 71.1242 0014499 153.1511 207.0418 14.19910037199246 SORCE 1 27651U 03004A 26062.65290785 .00004692 00000+0 35208-3 0 9997 2 27651 39.9905 143.5088 0016676 9.7243 350.3871 15.03042744256019 MOST 1 27843U 03031D 26062.61533789 .00000114 00000+0 72299-4 0 9997 2 27843 98.7082 71.8006 0009598 191.1531 168.9435 14.21297264175719 SCISAT 1 1 27858U 03036A 26062.80735334 .00001265 00000+0 16665-3 0 9991 2 27858 73.9315 20.6973 0005882 114.7235 245.4554 14.81297638215841 SWIFT 1 28485U 04047A 26062.91438176 .00052647 00000+0 64171-3 0 9992 2 28485 20.5532 271.1351 0003110 318.2835 41.7372 15.58709156170369 HINODE (SOLAR-B) 1 29479U 06041A 26062.64346868 .00000932 00000+0 16910-3 0 9996 2 29479 98.0628 80.3262 0016139 262.3103 97.6269 14.68462453 39389 SHIJIAN-6 02A (SJ-6 02A) 1 29505U 06046A 26062.96766567 .00005893 00000+0 31390-3 0 9998 2 29505 97.6510 103.2678 0004428 127.3474 232.8163 15.15594581 56329 SHIJIAN-6 02B (SJ-6 02B) 1 29506U 06046B 26062.96485969 .00002626 00000+0 21023-3 0 9996 2 29506 97.7050 92.7459 0014177 61.2172 299.0474 15.00964299 54950 FGRST (GLAST) 1 33053U 08029A 26062.72201032 .00005181 00000+0 19841-3 0 9996 2 33053 25.5812 216.4397 0008498 158.2380 201.8520 15.23274978979738 SDO 1 36395U 10005A 26062.06732369 -.00000069 00000+0 00000+0 0 9998 2 36395 34.4278 87.9487 0000369 70.7532 284.4475 1.00275344 58992 CRYOSAT 2 1 36508U 10013A 26062.97846248 .00000284 00000+0 69694-4 0 9992 2 36508 92.0224 251.8115 0002116 86.4287 273.7162 14.51905684842815 X-SAT 1 37389U 11015C 26062.91610422 .00000247 00000+0 12278-3 0 9994 2 37389 98.3414 45.0096 0012989 294.9488 65.0342 14.25170052772685 GCOM-W1 (SHIZUKU) 1 38337U 12025A 26062.83126372 .00000914 00000+0 21289-3 0 9990 2 38337 98.2049 4.9801 0001509 75.7820 345.7773 14.57088261733690 NUSTAR 1 38358U 12031A 26063.00001157 .00011140 00000+0 65465-3 0 9990 2 38358 6.0265 102.5000 0008620 336.4621 170.3609 15.07625445 1306 NEOSSAT 1 39089U 13009D 26062.91178405 .00000321 00000+0 12581-3 0 9998 2 39089 98.4136 245.4563 0010701 194.7642 165.3233 14.35781997681634 BRITE-AUSTRIA 1 39091U 13009F 26062.47500305 .00000308 00000+0 11935-3 0 9997 2 39091 98.3949 244.5381 0009982 189.6550 170.4446 14.36491679681871 IRIS 1 39197U 13033A 26062.56560226 .00001906 00000+0 22550-3 0 9999 2 39197 97.9398 262.1371 0023522 306.4360 53.4686 14.85622833684691 HISAKI (SPRINT-A) 1 39253U 13049A 26062.95753142 .00000119 00000+0 69391-4 0 9993 2 39253 29.7219 34.9975 0136732 243.6487 114.9986 13.55530008617133 CASSIOPE 1 39265U 13055A 26062.88698805 .00045328 -49517-6 54739-3 0 9993 2 39265 80.9192 193.9151 0317437 55.5683 307.5112 15.18253748651658 STSAT-3 1 39422U 13066G 26062.95013459 .00004130 00000+0 31902-3 0 9993 2 39422 97.6053 34.6836 0012048 34.2226 325.9773 15.02027343668403 SWARM B 1 39451U 13067A 26062.90529985 .00005973 00000+0 21896-3 0 9994 2 39451 87.7485 14.2404 0003706 89.8804 270.2870 15.27789815667166 SWARM A 1 39452U 13067B 26062.90731341 .00014599 00000+0 27297-3 0 9991 2 39452 87.3287 95.3009 0003029 93.1701 266.9905 15.48594065689941 SWARM C 1 39453U 13067C 26062.90720425 .00014574 00000+0 27250-3 0 9995 2 39453 87.3285 93.8825 0003023 93.2346 266.9259 15.48593505689905 BRITE-CA1 (TORONTO) 1 40020U 14033L 26062.30920247 .00001673 00000+0 25976-3 0 9998 2 40020 97.9556 193.3093 0077697 255.6268 103.6306 14.72440643626634 OCO 2 1 40059U 14035A 26062.95340826 .00000790 00000+0 18543-3 0 9993 2 40059 98.2193 5.8814 0001139 91.9071 268.2258 14.57086194620724 BRITE-PL2 (HEWELIUSZ) 1 40119U 14049B 26062.77989302 .00003666 00000+0 34734-3 0 9998 2 40119 97.8981 174.0764 0015504 99.5590 260.7382 14.94142812625704 MMS 1 1 40482U 15011A 26063.00001157 -.00001982 00000+0 00000+0 0 9996 2 40482 70.7232 350.2267 8417992 165.3405 9.3412 0.28122695 1331 MMS 2 1 40483U 15011B 26063.00001157 -.00001982 00000+0 00000+0 0 9997 2 40483 70.7239 350.2289 8418271 165.3456 9.3301 0.28131436 1330 MMS 3 1 40484U 15011C 26063.00001157 -.00001982 00000+0 00000+0 0 9998 2 40484 70.7258 350.2335 8418014 165.3408 9.3333 0.28122447 1333 MMS 4 1 40485U 15011D 26063.00001157 -.00001982 00000+0 00000+0 0 9999 2 40485 70.7239 350.2286 8417532 165.3483 9.3188 0.28121986 1330 ASTROSAT 1 40930U 15052A 26062.93581775 .00002565 00000+0 23142-3 0 9992 2 40930 5.9956 192.8448 0008399 328.5004 31.4621 14.82279665564180 DAMPE 1 41173U 15078A 26062.98150704 .00002464 00000+0 86051-4 0 9996 2 41173 97.4577 67.9438 0013903 89.4191 270.8643 15.30475136568455 PISAT 1 41784U 16059B 26062.55766424 .00001447 00000+0 25467-3 0 9992 2 41784 97.8188 67.5655 0029051 180.1556 179.9646 14.68755523504236 HXMT (HUIYAN) 1 42758U 17034A 26062.98508242 .00007662 00000+0 38317-3 0 9990 2 42758 43.0149 48.3853 0032327 201.0058 158.9464 15.17372610481679 FLYING LAPTOP 1 42831U 17042G 26062.97631076 .00005176 00000+0 41412-3 0 9990 2 42831 97.4249 222.9057 0018526 113.9612 246.3555 15.00471338470673 ZHANGHENG 1-01 (CSES-1) 1 43194U 18015C 26062.93150263 .00014030 00000+0 63568-3 0 9999 2 43194 97.6740 226.5560 0014848 266.0890 93.8648 15.20881339448642 SALSAT 1 46495U 20068K 26062.77970162 .00012684 00000+0 46597-3 0 9993 2 46495 97.8847 59.5668 0008731 321.6728 38.3888 15.28039347299257 IXPE 1 49954U 21121A 26063.00001157 .00015505 00000+0 89103-3 0 9998 2 49954 0.2302 32.3951 0007264 289.7465 219.7721 15.09118188 5694